Location: Cudham
(51.3000°N, 0.0667°E)
Time: 22:39:06
(UTC+00:00)

Cosmos 1980 Rocket - Pass Details

Date: 19 May 2025
Orbit: 829 x 847 km, 71.0° (Epoch: 12 June)

Event Time Altitude Azimuth Distance (km) Brightness Sun altitude
Rises 20:43:59 0° 331° (NNW) 3,384 7.1 -7.3°
Reaches altitude 10° 20:46:34 10° 338° (NNW) 2,447 5.9 -7.5°
Maximum altitude 20:51:53 43° 50° (NE) 1,163 2.9 -8.1°
Drops below altitude 10° 20:57:12 10° 121° (ESE) 2,440 4.0 -8.7°
Enters shadow 20:57:18 10° 122° (ESE) 2,479 4.0 -8.7°
